{"data":{"norad_id":67557,"epoch":"2026-09-20T11:33:37.556352Z","epoch_age_seconds":95021,"freshness":"FRESH","line1":"1 67557U 26015B   26263.48168468  .00000045  00000+0  49288-4 0  9991","line2":"2 67557  88.9945 258.8654 0004407 136.3060 223.8442 13.52675047 32591","mean_motion":13.52675047,"eccentricity":0.0004407,"inclination_deg":88.9945,"raan_deg":258.8654,"arg_perigee_deg":136.306,"mean_anomaly_deg":223.8442,"bstar":4.9288e-5,"rev_number":3259,"period_min":106.45572291687,"perigee_km":1059.1536340481,"apogee_km":1065.7117521756,"semimajor_km":7440.5696931118,"source":"CELESTRAK","updated_at":"2026-09-21T09:00:16.719985Z"}}